Location: Colonia Mina de C?rbuni
(46.1667°N, 22.7167°E)
Time: 06:21:22
(UTC+00:00)

Courier 1B - Pass Details

Date: 29 April 2024
Orbit: 962 x 1208 km, 28.3° (Epoch: 26 May)

Event Time Altitude Azimuth Distance (km) Brightness Sun altitude
Rises 23:23:53 0° 246° (WSW) 4,104 - -27.6°
Reaches altitude 10° 23:27:46 10° 229° (SW) 3,126 - -27.4°
Maximum altitude 23:32:43 18° 189° (S) 2,520 - -27.2°
Drops below altitude 10° 23:37:33 10° 149° (SSE) 3,048 - -26.9°
Sets 23:41:17 0° 132° (SE) 3,965 - -26.7°
